Regional Weather Roundup
Issued by NWS Green Bay, WI

Home | Current Version | Previous Version | Text Only | Print | Product List | Glossary On
Versions: 1 2 3 4 5 6 7 8 9 10 11 12 13 14 15 16 17 18 19 20 21 22 23 24 25 26 27 28 29 30 31 32 33 34 35 36 37 38 39 40 41 42 43 44 45 46 47 48 49 50
000
ASUS43 KGRB 211410
RWRGRB

NORTH-CENTRAL AND NORTHEAST WISCONSIN REGIONAL WEATHER ROUNDUP
NATIONAL WEATHER SERVICE GREEN BAY WI
800 AM CST SAT JAN 21 2017

WIZ005-009-010>012-018-019-211500-
NORTH CENTRAL WISCONSIN

CITY           SKY/WX    TMP DP  RH WIND       PRES   REMARKS
IRONWOOD       CLOUDY    34  33  96 E5        29.52F
MANITOWISH WTR CLOUDY    32  32 100 SE6       29.51R FOG
ARBOR VITAE    CLOUDY    34  33  96 SE7       29.52R FOG
EAGLE RIVER    CLOUDY    33  33 100 E6        29.51F FOG
LAND O LAKES   CLOUDY    33  33 100 SE8       29.54S FOG
RHINELANDER    FOG       34  34 100 E9        29.51F VSB 1
PHILLIPS       CLOUDY    33  33 100 E6        29.49F
ANTIGO         FOG       32  32 100 E9        29.52S VSB 1/2
TOMAHAWK       CLOUDY    33  32  96 CALM      29.51S FOG
MERRILL        FOG       33  33 100 E7          N/A  VSB 1/2
$$

WIZ013-073-211500-
NORTHEAST WISCONSIN

CITY           SKY/WX    TMP DP  RH WIND       PRES   REMARKS
IRON MOUNTAIN  FOG       32  31  96 CALM      29.56R VSB 1/4
MARINETTE      NOT AVBL
OCONTO         CLOUDY    34  34  99 E3        29.57S
$$

WIZ017-030-035>037-045-211500-
CENTRAL WISCONSIN

CITY           SKY/WX    TMP DP  RH WIND       PRES   REMARKS
MEDFORD        FOG       32  32  99 E8        29.46F VSB 1/2
WAUSAU         FOG       33  33 100 E9        29.48F VSB 1/2
MOSINEE        FOG       34  34 100 E10       29.49F VSB 1/4
MARSHFIELD     FOG       34  33  96 E9        29.46S VSB 1/4
WISC RAPIDS    FOG       34  34 100 E13       29.48F VSB 1/4
STEVENS POINT  FOG       32  32 100 E9        29.50F VSB 1
WAUPACA        FOG       37  36  96 CALM      29.52F VSB 1
SHAWANO        FOG       35  34  96 NE5       29.56R VSB 3/4
CLINTONVILLE   CLOUDY    34  34 100 NE5       29.54S FOG
WAUTOMA        FOG       35  35 100 E8        29.50S VSB 1/4
$$

WIZ038-039-048-051-211500-
FOX VALLEY

CITY           SKY/WX    TMP DP  RH WIND       PRES   REMARKS
NWS GREEN BAY  FOG       36  36 100 NE7       29.55S VSB 1/4
APPLETON       FOG       36  36 100 E6        29.52R VSB 1/4
OSHKOSH        FOG       35  34  96 E6        29.51S VSB<1/4
FOND DU LAC    CLOUDY    38  36  92 SE5       29.50F FOG
$$

WIZ022-050-052-211500-
EAST CENTRAL WISCONSIN

CITY           SKY/WX    TMP DP  RH WIND       PRES   REMARKS
EPHRAIM        CLOUDY    34  34 100 E7        29.57F FOG
WASHINGTON ISL CLOUDY    34  34  99 E3        29.59F
STURGEON BAY   MIX PCPN  36  36 100 E8        29.58S VSB 1
MANITOWOC      FOG       38  37  97 E5        29.56R VSB 1/4
SHEBOYGAN      FOG       36  35  96 NE5       29.54S VSB<1/4
$$

LMZ563-521-522-541>543-211500-
LAKESHORE

STATION/POSITION TIME  TEMP    WIND        PRES    VSBY  WAVE
                       AIR SEA DIR/SP/G                  HT/PER
                 (UTC) (F)     (DEG/KT/KT) (MB)    (MI)  (FT/S)
SHEBOYGAN LKSHOR 1400   39     140/  5/  6 1000.5F
KEWAUNEE LKSHORE 1348   36      40/  2/  4 1000.8F
NORTHPORT PIER   1330   34      CALM  /  4 1002.7S
SISTER BAY LKSHO 1335   36      90/  1/  5   N/A
$$



USA.gov is the U.S. government's official web portal to all federal, state and local government web resources and services.